Location: Aniagüita
(10.0946°N, 66.9708°W)
Time: 21:25:07
(UTC+00:00)

Feng Yun 1-1 Rocket - Pass Details

Date: 30 June 2022
Orbit: 830 x 933 km, 99.2° (Epoch: 15 August)

Event Time Altitude Azimuth Distance (km) Brightness Sun altitude
Exits shadow 23:32:55 - 152° (SSE) 2,822 6.4 -9.8°
Reaches altitude 10° 23:33:56 10° 149° (SSE) 2,430 6.1 -10.0°
Maximum altitude 23:39:05 48° 76° (ENE) 1,075 4.5 -11.2°
Drops below altitude 10° 23:44:17 10° 2° (N) 2,457 6.9 -12.3°
Sets 23:46:44 0° 357° (N) 3,404 7.8 -12.8°
